Date_and_time,latitude,longitude,wind_speed,RelWindDirFrom,WindDirFrom,air_pressure,air_temperature,relative_humidity,Temp,platform_speed_wrt_ground,air_pressure_at_mean_sea_level,platform_orientation
2019-06-02 23:40,50.6304383333333,-96.9807733333333,8.3,9.9,41,989.78,12.2,51,14.06,0.0,1016.50,360.0
2019-06-02 23:50,50.63046,-96.9807416666667,8.0,9.8,41,989.66,12.2,53,14.12,0.0,1016.37,360.0
2019-06-03 00:00,50.6304383333333,-96.980745,7.1,8.3,46,989.46,12.2,51,14.09,0.0,1016.17,90.0
2019-06-03 00:10,50.6304416666667,-96.9807483333333,6.8,7.7,44,989.41,12.2,52,14.08,0.0,1016.11,90.0
2019-06-03 00:20,50.6304416666667,-96.9807483333333,6.6,8.2,36,989.41,12.2,53,14.08,0.0,1016.11,90.0
2019-06-03 00:30,50.6304416666667,-96.9807516666667,5.7,6.9,33,989.41,12.2,52,14.08,0.0,1016.11,90.0
2019-06-03 00:40,50.63044,-96.9807616666667,6.6,8.0,32,989.40,12.3,54,14.07,0.0,1016.10,90.0
2019-06-03 00:50,50.63045,-96.9807516666667,6.6,8.0,27,989.34,12.2,54,14.07,0.0,1016.02,90.0
2019-06-03 01:00,50.630445,-96.9807466666667,8.5,9.7,26,989.29,12.2,56,14.10,0.0,1015.98,90.0
2019-06-03 01:10,50.63045,-96.9807466666667,8.1,9.3,29,989.08,12.2,57,14.12,0.0,1015.77,90.0
2019-06-03 01:20,50.6304533333333,-96.9807483333333,9.0,10.8,40,988.82,12.2,58,14.09,0.0,1015.51,90.0
2019-06-03 01:30,50.6304433333333,-96.980765,9.3,10.6,36,988.91,12.1,60,14.12,0.0,1015.60,90.0
2019-06-03 01:40,50.63045,-96.980765,10.2,11.5,36,988.92,12.1,60,14.17,0.0,1015.62,90.0
2019-06-03 01:50,50.6304516666667,-96.9807633333333,9.3,10.9,34,989.03,12.1,62,14.23,0.0,1015.72,90.0
2019-06-03 02:00,50.6304533333333,-96.9807633333333,10.1,11.5,35,989.04,12.1,63,14.27,0.0,1015.73,90.0
2019-06-03 02:10,50.6304333333333,-96.9807783333333,10.1,11.3,43,988.89,12.2,63,14.26,0.0,1015.58,90.0
2019-06-03 02:20,50.6304716666667,-96.9807783333333,10.4,11.8,41,989.07,12.2,63,14.25,0.0,1015.75,90.0
2019-06-03 02:30,50.6304333333333,-96.9807666666667,8.6,10.8,46,989.10,12.3,63,14.26,0.0,1015.78,90.0
2019-06-03 02:40,50.630445,-96.9807683333333,9.1,11.0,51,989.08,12.4,64,14.27,0.0,1015.76,90.0
2019-06-03 02:50,50.6304483333333,-96.9807633333333,9.0,10.2,54,989.13,12.5,67,14.26,0.0,1015.81,90.0
2019-06-03 03:00,50.63045,-96.980765,9.1,10.9,56,989.12,12.5,70,14.25,0.0,1015.80,310.6
2019-06-03 03:10,50.6304483333333,-96.9807616666667,8.5,10.7,66,989.07,12.5,71,14.25,0.0,1015.75,310.6
2019-06-03 03:20,50.6304466666667,-96.98076,8.0,9.7,75,989.18,12.8,68,14.25,0.0,1015.86,310.6
2019-06-03 03:30,50.6304433333333,-96.9807633333333,8.4,9.9,72,989.27,12.9,68,14.24,0.0,1015.94,310.6
2019-06-03 03:40,50.630445,-96.9807566666667,7.9,9.1,75,989.28,12.9,70,14.19,0.0,1015.94,310.6
2019-06-03 03:50,50.6304516666667,-96.98075,8.3,9.4,77,989.15,12.9,74,14.17,0.0,1015.81,310.6
2019-06-03 04:00,50.63046,-96.980765,8.5,9.6,80,989.06,12.8,74,14.14,0.0,1015.72,328.9
2019-06-03 04:10,50.630455,-96.9807566666667,7.7,9.4,86,988.99,12.9,73,14.13,0.0,1015.64,328.9
2019-06-03 04:20,50.6304516666667,-96.9807566666667,8.6,11.4,96,988.75,13.0,74,14.14,0.0,1015.39,328.9
2019-06-03 04:30,50.6304516666667,-96.9807566666667,9.2,12.1,99,988.75,13.2,71,14.18,0.0,1015.37,328.9
2019-06-03 04:40,50.6304483333333,-96.9807566666667,12.2,15.4,115,988.79,13.7,61,14.25,0.0,1015.39,328.9
2019-06-03 04:50,50.6304483333333,-96.9807566666667,13.5,16.0,119,988.94,13.9,56,14.27,0.0,1015.54,328.9
2019-06-03 05:00,50.63045,-96.9807566666667,13.4,16.0,117,988.93,13.9,56,14.28,0.0,1015.53,90.0
2019-06-03 05:10,50.63045,-96.9807583333333,14.6,16.6,114,988.70,13.8,54,14.30,0.0,1015.28,90.0
2019-06-03 05:20,50.6304516666667,-96.9807583333333,14.8,17.8,114,988.48,13.8,56,14.29,0.0,1015.05,90.0
2019-06-03 05:30,50.6304516666667,-96.9807583333333,15.4,18.5,114,988.27,13.7,57,14.28,0.0,1014.83,90.0
2019-06-03 05:40,50.6304566666667,-96.9807616666667,16.5,20.0,116,988.13,13.7,55,14.25,0.0,1014.70,90.0
2019-06-03 05:50,50.630445,-96.9807666666667,15.9,19.0,114,988.08,13.6,56,14.22,0.0,1014.65,90.0
2019-06-03 06:00,50.6304483333333,-96.9807616666667,15.9,18.8,117,988.11,13.6,56,14.18,0.0,1014.67,167.4
2019-06-03 06:10,50.6304466666667,-96.98076,15.9,19.3,121,988.05,13.6,55,14.15,0.0,1014.61,167.4
2019-06-03 06:20,50.6304483333333,-96.9807583333333,15.9,18.5,120,987.96,13.5,56,14.15,0.0,1014.50,167.4
2019-06-03 06:30,50.63045,-96.98076,16.7,19.2,122,987.69,13.5,56,14.13,0.0,1014.22,167.4
2019-06-03 06:40,50.6304483333333,-96.9807583333333,15.4,18.4,120,987.64,13.5,57,14.12,0.0,1014.16,167.4
2019-06-03 06:50,50.6304533333333,-96.9807766666667,14.5,17.1,120,987.77,13.5,57,14.09,0.0,1014.29,167.4
2019-06-03 07:00,50.6304533333333,-96.980765,14.7,17.2,126,987.79,13.5,56,14.04,0.0,1014.31,360.0
2019-06-03 07:10,50.63045,-96.9807633333333,14.1,17.2,127,987.59,13.5,57,14.02,0.0,1014.11,360.0
2019-06-03 07:20,50.6304483333333,-96.9807633333333,13.1,17.2,136,987.56,13.1,55,14.02,0.0,1014.09,360.0
2019-06-03 07:30,50.6304433333333,-96.980765,13.7,17.5,138,987.54,13.0,52,14.00,0.0,1014.08,360.0
2019-06-03 07:40,50.6304416666667,-96.9807633333333,13.8,17.1,142,987.45,12.9,53,13.98,0.0,1013.99,360.0
2019-06-03 07:50,50.6304433333333,-96.9807633333333,12.9,17.6,135,987.36,13.2,54,13.96,0.0,1013.89,360.0
2019-06-03 08:00,50.6304516666667,-96.9807633333333,13.0,16.9,135,987.29,13.2,53,13.95,0.0,1013.81,270.0
2019-06-03 08:10,50.630445,-96.98076,12.6,17.1,135,987.23,13.2,53,13.95,0.0,1013.77,270.0
2019-06-03 08:20,50.6304416666667,-96.980755,12.1,16.3,134,987.13,13.2,56,13.95,0.0,1013.66,270.0
2019-06-03 08:30,50.6304416666667,-96.9807566666667,12.2,16.9,134,987.20,13.1,55,13.96,0.0,1013.74,270.0
2019-06-03 08:40,50.6304416666667,-96.9807566666667,11.7,16.0,136,987.32,13.0,55,13.97,0.0,1013.87,270.0
2019-06-03 08:50,50.6304416666667,-96.9807566666667,13.1,16.5,141,987.18,12.8,53,13.97,0.0,1013.73,270.0
2019-06-03 09:00,50.6304433333333,-96.9807583333333,13.0,17.6,139,987.20,12.8,54,13.98,0.0,1013.75,360.0
2019-06-03 09:10,50.6304433333333,-96.9807583333333,11.8,15.8,133,987.36,13.1,55,13.99,0.0,1013.92,360.0
2019-06-03 09:20,50.6304433333333,-96.9807583333333,11.8,15.3,135,987.54,13.0,54,14.00,0.0,1014.12,360.0
2019-06-03 09:30,50.6304433333333,-96.9807583333333,10.4,14.1,136,987.68,12.9,55,14.00,0.0,1014.27,360.0
2019-06-03 09:40,50.6304433333333,-96.9807566666667,11.8,13.7,129,987.74,13.3,55,14.00,0.0,1014.30,360.0
2019-06-03 09:50,50.6304433333333,-96.9807566666667,12.2,14.2,125,987.63,13.3,57,13.99,0.0,1014.19,360.0
2019-06-03 10:00,50.630445,-96.9807566666667,12.9,15.5,121,987.46,13.2,58,14.00,0.0,1014.01,165.5
2019-06-03 10:10,50.630445,-96.9807566666667,13.7,15.7,116,987.40,13.2,57,13.99,0.0,1013.95,165.5
2019-06-03 10:20,50.630445,-96.9807566666667,13.0,15.2,114,987.58,13.2,57,13.99,0.0,1014.14,165.5
2019-06-03 10:30,50.630445,-96.9807566666667,11.7,14.1,110,987.86,13.1,59,13.99,0.0,1014.43,165.5
2019-06-03 10:40,50.6304466666667,-96.9807516666667,11.8,14.3,101,987.92,13.0,59,13.98,0.0,1014.51,165.5
2019-06-03 10:50,50.6304583333333,-96.9807683333333,12.2,14.4,98,987.81,12.9,60,13.98,0.0,1014.41,165.5
2019-06-03 11:00,50.6304533333333,-96.9807633333333,13.1,15.7,99,987.73,12.8,60,13.96,0.0,1014.32,90.0
2019-06-03 11:10,50.6304533333333,-96.9807633333333,13.1,15.1,98,987.64,12.8,61,13.95,0.0,1014.23,90.0
2019-06-03 11:20,50.6304533333333,-96.9807616666667,14.5,19.4,105,987.66,12.8,61,13.94,0.0,1014.25,90.0
2019-06-03 11:30,50.6304533333333,-96.9807616666667,16.2,18.6,109,987.58,12.7,60,13.93,0.0,1014.16,90.0
2019-06-03 11:40,50.6304533333333,-96.9807633333333,17.2,20.4,109,987.23,12.6,63,13.92,0.0,1013.81,90.0
2019-06-03 11:50,50.6304483333333,-96.980755,18.2,22.7,109,987.03,12.6,62,13.92,0.0,1013.59,90.0
2019-06-03 12:00,50.6304483333333,-96.98075,18.2,22.5,109,987.02,12.7,63,13.91,0.0,1013.58,12.6
2019-06-03 12:10,50.63045,-96.98075,18.5,22.5,108,987.26,12.7,63,13.90,0.0,1013.83,12.6
2019-06-03 12:20,50.6304516666667,-96.9807533333333,16.9,20.0,110,987.51,12.8,64,13.88,0.0,1014.08,12.6
2019-06-03 12:30,50.6304466666667,-96.9807633333333,18.2,22.9,112,987.42,12.9,63,13.86,0.0,1013.99,12.6
2019-06-03 12:40,50.630435,-96.980785,19.3,23.3,114,987.13,13.2,63,13.85,0.0,1013.69,12.6
2019-06-03 12:50,50.6304516666667,-96.9807533333333,18.6,21.7,117,987.09,13.7,62,13.84,0.0,1013.63,12.6
2019-06-03 13:00,50.6304533333333,-96.980755,19.1,23.3,118,987.05,15.7,55,13.83,0.0,1013.50,360.0
2019-06-03 13:10,50.62915,-96.9812083333333,20.2,25.5,124,986.54,15.3,57,13.83,0.5,1012.99,360.0
2019-06-03 13:20,50.6292666666667,-96.9500033333333,26.1,32.0,127,985.69,12.6,62,13.88,7.1,1012.25,360.0
2019-06-03 13:30,50.6305366666667,-96.90453,27.2,32.4,125,985.81,12.4,62,13.24,10.4,1012.39,360.0
2019-06-03 13:40,50.6388533333333,-96.86536,22.1,30.2,113,986.30,12.1,64,12.81,9.4,1012.91,360.0
2019-06-03 13:50,50.6659816666667,-96.8432866666667,19.7,22.9,92,986.60,11.5,68,12.45,11.0,1013.24,360.0
2019-06-03 14:00,50.69295,-96.820565,19.0,22.0,99,986.72,11.0,73,12.17,11.0,1013.37,58.3
2019-06-03 14:10,50.7195533333333,-96.796955,19.7,22.7,103,986.63,10.7,77,11.86,11.0,1013.29,58.3
2019-06-03 14:20,50.7459333333333,-96.7727383333333,19.7,22.4,106,986.27,10.5,77,11.60,11.0,1012.93,58.3
2019-06-03 14:30,50.7728183333333,-96.7494016666667,18.7,21.3,110,986.05,10.4,78,11.41,11.0,1012.70,58.3
2019-06-03 14:40,50.78794,-96.73676,16.2,20.4,134,986.09,10.4,80,11.25,6.2,1012.71,58.3
2019-06-03 14:50,50.79062,-96.73843,16.6,19.9,158,986.14,10.5,79,11.18,1.0,1012.67,58.3
2019-06-03 15:00,50.7921216666667,-96.7355416666667,16.2,22.0,155,986.03,10.2,79,11.15,0.9,1012.59,43.7
2019-06-03 15:10,50.79397,-96.7352716666667,15.5,20.2,153,986.02,10.2,80,11.14,0.7,1012.70,43.7
2019-06-03 15:20,50.8137316666667,-96.7477533333333,7.0,16.5,142,986.63,10.8,80,11.09,7.7,1013.31,43.7
2019-06-03 15:30,50.8218116666667,-96.7541433333333,13.7,18.0,153,986.13,11.1,77,11.03,3.3,1012.79,43.7
2019-06-03 15:40,50.8300383333333,-96.75725,15.5,20.6,152,985.78,10.9,79,11.05,3.0,1012.48,43.7
2019-06-03 15:50,50.8373866666667,-96.7649033333333,17.9,21.8,159,985.15,10.4,78,11.08,3.2,1011.88,43.7
2019-06-03 16:00,50.8468416666667,-96.7693216666667,18.6,24.8,154,984.52,10.6,78,11.15,3.5,1011.23,31.6
2019-06-03 16:10,50.8472116666667,-96.76962,20.6,24.2,151,983.72,10.5,79,11.21,0.1,1010.43,31.6
2019-06-03 16:20,50.8472966666667,-96.7696466666667,21.8,26.4,148,983.04,10.3,82,11.24,0.0,1009.74,31.6
2019-06-03 16:30,50.8473583333333,-96.7696033333333,19.1,22.8,144,983.20,10.2,85,11.25,0.0,1009.92,31.6
2019-06-03 16:40,50.8474466666667,-96.769575,17.3,22.2,152,983.96,10.2,84,11.25,0.0,1010.68,31.6
2019-06-03 16:50,50.8475433333333,-96.76955,19.1,25.0,151,983.53,10.4,82,11.25,0.0,1010.25,31.6
2019-06-03 17:00,50.8475666666667,-96.7696616666667,20.4,23.3,152,983.52,10.7,77,11.25,0.0,1010.22,11.7
2019-06-03 17:10,50.847645,-96.7698083333333,18.9,22.2,138,983.38,10.6,81,11.25,0.0,1010.06,11.7
2019-06-03 17:20,50.8476133333333,-96.769965,18.4,21.7,127,983.20,10.5,82,11.24,0.0,1009.87,11.7
2019-06-03 17:30,50.8477216666667,-96.7701366666667,20.3,24.2,127,982.82,10.5,82,11.24,0.1,1009.49,11.7
2019-06-03 17:40,50.8533483333333,-96.7729816666667,20.2,27.2,122,982.81,10.7,81,11.23,2.1,1009.49,11.7
2019-06-03 17:50,50.8798766666667,-96.7969916666667,12.8,17.8,84,983.88,11.3,79,11.21,11.0,1010.55,11.7
2019-06-03 18:00,50.9072583333333,-96.8192033333333,11.2,17.3,112,983.47,12.7,73,11.17,11.1,1010.07,335.4
2019-06-03 18:10,50.934735,-96.8406166666667,11.5,17.7,104,983.64,13.5,71,11.23,11.0,1010.21,335.4
2019-06-03 18:20,50.949275,-96.851775,15.5,20.9,116,983.31,13.2,71,11.27,5.8,1009.90,335.4
2019-06-03 18:30,50.9568016666667,-96.8583766666667,18.2,22.8,121,983.17,13.7,69,11.27,3.1,1009.72,335.4
2019-06-03 18:40,50.9633733333333,-96.8653166666667,19.5,24.0,116,982.90,13.4,71,11.22,2.8,1009.45,335.4
2019-06-03 18:50,50.9699616666667,-96.87226,20.2,24.3,120,982.81,13.0,72,11.35,2.8,1009.36,335.4
2019-06-03 19:00,50.9749883333333,-96.8751733333333,19.4,25.0,121,982.35,12.2,77,11.55,1.9,1008.93,332.5
2019-06-03 19:10,50.9749333333333,-96.8752833333333,20.5,24.3,117,981.89,11.3,79,11.61,0.0,1008.50,332.5
2019-06-03 19:20,50.97501,-96.8752033333333,20.4,24.6,116,981.88,11.3,80,11.62,0.0,1008.50,332.5
2019-06-03 19:30,50.97502,-96.87521,20.7,25.6,122,981.80,11.3,80,11.63,0.0,1008.41,332.5
2019-06-03 19:40,50.9749566666667,-96.8753283333333,21.1,25.5,117,981.70,11.2,81,11.64,0.0,1008.28,332.5
2019-06-03 19:50,50.974975,-96.875335,19.1,23.3,108,982.22,11.2,80,11.65,0.0,1008.75,332.5
2019-06-03 20:00,50.9749416666667,-96.8753966666667,17.3,20.0,106,982.42,11.2,82,11.66,0.0,1008.91,332.4
2019-06-03 20:10,50.9749233333333,-96.87543,18.3,21.7,107,982.22,11.2,82,11.67,0.0,1008.73,332.4
2019-06-03 20:20,50.9749966666667,-96.875355,19.2,22.5,110,982.02,11.3,82,11.67,0.0,1008.49,332.4
2019-06-03 20:30,50.9749416666667,-96.8754216666667,19.5,23.0,112,981.72,11.5,81,11.69,0.0,1008.20,332.4
2019-06-03 20:40,50.9664016666667,-96.877895,18.3,24.4,116,982.16,11.5,82,11.70,3.1,1008.67,332.4
2019-06-03 20:50,50.93708,-96.8869783333333,21.7,25.4,130,982.25,11.5,82,11.72,10.8,1008.79,332.4
2019-06-03 21:00,50.9080466666667,-96.8958033333333,21.5,24.9,126,982.09,11.6,81,11.53,10.6,1008.66,271.0
2019-06-03 21:10,50.87906,-96.9045083333333,20.6,23.4,128,981.97,11.7,81,11.60,10.6,1008.53,271.0
2019-06-03 21:20,50.84958,-96.9111083333333,18.7,23.2,127,981.92,11.8,81,11.64,10.7,1008.48,271.0
2019-06-03 21:30,50.82722,-96.917645,16.5,21.5,118,981.65,11.9,81,11.91,8.2,1008.20,271.0
2019-06-03 21:40,50.80136,-96.9196533333333,17.0,25.8,113,981.39,12.0,80,12.28,9.3,1007.93,271.0
2019-06-03 21:50,50.77445,-96.922325,17.2,28.2,111,981.19,12.1,81,12.43,9.7,1007.71,271.0
2019-06-03 22:00,50.7673266666667,-96.9273233333333,13.7,16.5,85,981.07,12.1,83,12.54,2.8,1007.59,189.0
2019-06-03 22:10,50.7602533333333,-96.9303866666667,13.6,15.5,87,981.15,12.3,82,12.60,2.6,1007.67,189.0
2019-06-03 22:20,50.7527366666667,-96.9319283333333,12.9,15.9,90,981.11,12.5,79,12.61,2.7,1007.61,189.0
2019-06-03 22:30,50.744745,-96.9327516666667,15.3,18.1,93,981.01,12.9,75,12.57,2.9,1007.48,189.0
2019-06-03 22:40,50.7337983333333,-96.9294933333333,17.1,20.2,93,980.71,13.1,74,12.57,4.0,1007.16,189.0
2019-06-03 22:50,50.7339183333333,-96.92994,16.8,19.9,83,980.04,13.4,73,12.58,0.1,1006.47,189.0
2019-06-03 23:00,50.7338983333333,-96.92997,16.1,19.0,79,979.97,13.4,73,12.59,0.0,1006.38,188.2
2019-06-03 23:10,50.7338616666667,-96.9299966666667,15.8,19.3,79,979.81,13.4,73,12.60,0.0,1006.22,188.2
2019-06-03 23:20,50.71585,-96.9354516666667,12.8,17.9,99,980.20,13.1,76,12.60,6.6,1006.62,188.2
2019-06-03 23:30,50.6859833333333,-96.9420083333333,15.8,19.5,108,980.24,13.2,75,12.66,10.9,1006.65,188.2
2019-06-03 23:40,50.656035,-96.9468983333333,11.8,15.2,112,980.05,13.3,79,12.98,10.8,1006.45,188.2
